Change the Weather History Date:

Saturday, October 18, 2014

  Actual Average Record
Temperature  
Mean Temperature 54 °F 46 °F  
Max Temperature 68 °F 61 °F 78 °F (1921)
Min Temperature 39 °F 31 °F 10 °F (1971)
Degree Days  
Heating Degree Days 11 19  
Month to date heating degree days 228 290  
Since 1 July heating degree days 480 607  
Cooling Degree Days 0 0  
Month to date cooling degree days 0 0  
Year to date cooling degree days 109 117  
Growing Degree Days 2 (Base 50)    
Moisture  
Dew Point 37 °F    
Average Humidity 56    
Maximum Humidity 79    
Minimum Humidity 32    
Precipitation  
Precipitation 0.00 in 0.06 in 1.75 in (1949)
Month to date precipitation 0.68 1.00  
Year to date precipitation 16.62 17.57  
Snow  
Snow 0.00 in 0.10 in 5.50 in (1908)
Month to date snowfall 0.0 0.5  
Since 1 July snowfall 0.0 0.5  
Snow Depth 0.00 in    
Sea Level Pressure  
Sea Level Pressure 29.96 in    
Wind  
Wind Speed 2 mph (SSW)    
Max Wind Speed 14 mph    
Max Gust Speed 17 mph    
Visibility 10 miles    
Events      
T = Trace of Precipitation, MM = Missing Value Source: NWS Daily Summary

Daily Weather History Graph

Daily Weather History Graph

Search for Another Location

Airport or City:

Trip Planner

Search our weather history database for the weather conditions in past years. The results will help you decide how hot, cold, wet, or windy it might be!

Date:

Astronomy

Oct. 18, 2014 Rise Set
Actual Time 6:35 AM MST 5:47 PM MST
Civil Twilight 6:09 AM MST 6:13 PM MST
Nautical Twilight 5:40 AM MST 6:42 PM MST
Astronomical Twilight 5:10 AM MST 7:12 PM MST
Moon 1:47 AM MST (10/18) 3:00 PM MST (10/18)
Length of Visible Light 12h 03m
Length of Day
11h 12m
Waning Crescent, 23% of the Moon is Illuminated
Oct 18
Waning Crescent
Oct 23
New
Oct 30
First Quarter
Nov 6
Full
Nov 14
Last Quarter

Hourly Weather History & Observations

Time (MST) Temp. Dew Point Humidity Pressure Visibility Wind Dir Wind Speed Gust Speed Precip Events Conditions
12:57 AM 46.0 °F 37.9 °F 73% 29.97 in 10.0 mi Calm Calm - N/A   Scattered Clouds
1:57 AM 45.0 °F 37.0 °F 74% 29.97 in 10.0 mi Calm Calm - N/A   Overcast
2:57 AM 45.0 °F 37.9 °F 76% 29.96 in 10.0 mi Calm Calm - N/A   Overcast
3:57 AM 45.0 °F 37.0 °F 74% 29.96 in 10.0 mi Calm Calm - N/A   Mostly Cloudy
4:57 AM 42.1 °F 36.0 °F 79% 29.99 in 10.0 mi Calm Calm - N/A   Mostly Cloudy
5:57 AM 42.1 °F 36.0 °F 79% 30.00 in 10.0 mi Calm Calm - N/A   Overcast
6:57 AM 39.9 °F 34.0 °F 79% 30.03 in 10.0 mi Calm Calm - N/A   Mostly Cloudy
7:57 AM 45.0 °F 37.0 °F 74% 30.03 in 10.0 mi Calm Calm - N/A   Mostly Cloudy
8:57 AM 52.0 °F 36.0 °F 54% 30.01 in 10.0 mi NE 3.5 mph - N/A   Mostly Cloudy
9:57 AM 61.0 °F 37.0 °F 41% 29.97 in 10.0 mi Calm Calm - N/A   Clear
10:57 AM 62.1 °F 36.0 °F 38% 29.94 in 10.0 mi Calm Calm - N/A   Partly Cloudy
11:57 AM 64.0 °F 37.0 °F 37% 29.93 in 10.0 mi East 6.9 mph - N/A   Mostly Cloudy
12:57 PM 64.0 °F 36.0 °F 35% 29.92 in 10.0 mi West 3.5 mph - N/A   Overcast
1:57 PM 66.0 °F 35.1 °F 32% 29.90 in 10.0 mi SSW 6.9 mph - N/A   Mostly Cloudy
2:57 PM 64.9 °F 35.1 °F 33% 29.91 in 10.0 mi South 8.1 mph - N/A   Clear
3:57 PM 63.0 °F 37.0 °F 38% 29.91 in 10.0 mi South 5.8 mph - N/A   Scattered Clouds
4:57 PM 63.0 °F 37.0 °F 38% 29.92 in 10.0 mi South 5.8 mph - N/A   Mostly Cloudy
5:57 PM 57.0 °F 41.0 °F 55% 29.95 in 10.0 mi Calm Calm - N/A   Mostly Cloudy
6:57 PM 54.0 °F 41.0 °F 62% 30.00 in 10.0 mi SSW 9.2 mph - N/A   Mostly Cloudy
7:57 PM 51.1 °F 39.9 °F 66% 29.99 in 10.0 mi Calm Calm - N/A   Scattered Clouds
8:57 PM 48.0 °F 37.9 °F 68% 29.99 in 10.0 mi Calm Calm - N/A   Clear
9:57 PM 44.1 °F 37.9 °F 79% 29.95 in 10.0 mi Calm Calm - N/A   Clear
10:57 PM 44.1 °F 37.9 °F 79% 29.94 in 10.0 mi Calm Calm - N/A   Clear
11:57 PM 41.0 °F 36.0 °F 82% 29.94 in 10.0 mi Calm Calm - N/A   Clear